QPF
0.00 0.00 0.00 0.00 0.00 0.00 0.00 0.00 0.00 0.00 0.01 0.03 0.08 0.01 0.02 0.03 0.09 0.05 0.06 0.04 0.00 0.00 0.00 0.00 0.00 0.00 0.00 0.00 0.00 0.00 0.00 0.00 0.00 0.00 0.00 0.00 0.00 0.00 0.00 0.00 0.00 0.00 0.00 0.00 0.00 0.00 0.00 0.00 0.00
0.00 0.00 0.00 0.00 0.00 0.00 0.00 0.00 0.00 0.00 0.03 0.09 0.11 0.10 0.05 0.07 0.10 0.19 0.10 0.01 0.00 0.00 0.00 0.00 0.00 0.00 0.00 0.00 0.00 0.00 0.00 0.00 0.00 0.00 0.00 0.00 0.00 0.00 0.00 0.00 0.00 0.00 0.00 0.00 0.00 0.00 0.00 0.00 0.00
0.00 0.00 0.00 0.00 0.00 0.00 0.00 0.00 0.00 0.01 0.03 0.07 0.16 0.17 0.13 0.11 0.12 0.28 0.10 0.00 0.00 0.00 0.00 0.00 0.00 0.00 0.00 0.00 0.00 0.00 0.00 0.00 0.00 0.00 0.00 0.00 0.00 0.00 0.00 0.00 0.00 0.00 0.00 0.00 0.00 0.00 0.00 0.00 0.00
0.00 0.00 0.00 0.00 0.00 0.00 0.00 0.00 0.00 0.00 0.02 0.01 0.06 0.10 0.16 0.13 0.16 0.43 0.11 0.00 0.00 0.00 0.00 0.00 0.00 0.00 0.00 0.00 0.00 0.00 0.00 0.00 0.00 0.00 0.00 0.00 0.00 0.00 0.00 0.00 0.00 0.00 0.00 0.00 0.00 0.00 0.00 0.00 0.00
0.00 0.00 0.00 0.00 0.00 0.00 0.00 0.00 0.00 0.00 0.01 0.01 0.01 0.05 0.02 0.03 0.12 0.25 0.17 0.02 0.00 0.00 0.00 0.00 0.00 0.00 0.00 0.00 0.00 0.00 0.00 0.00 0.00 0.00 0.00 0.00 0.00 0.00 0.00 0.00 0.00 0.00 0.00 0.00 0.00 0.00 0.00 0.00 0.00
0.00 0.00 0.00 0.00 0.00 0.00 0.00 0.00 0.00 0.00 0.00 0.00 0.00 0.00 0.00 0.00 0.03 0.09 0.05 0.02 0.00 0.00 0.00 0.00 0.00 0.00 0.00 0.00 0.00 0.00 0.00 0.00 0.00 0.00 0.00 0.00 0.00 0.00 0.00 0.00 0.00 0.00 0.00 0.00 0.00 0.00 0.00 0.00 0.00
0.00 0.00 0.00 0.00 0.00 0.00 0.00 0.00 0.00 0.00 0.00 0.00 0.00 0.00 0.00 0.00 0.00 0.04 0.05 0.01 0.00 0.00 0.00 0.00 0.00 0.00 0.00 0.00 0.00 0.00 0.00 0.00 0.00 0.00 0.00 0.00 0.00 0.00 0.00 0.00 0.00 0.00 0.00 0.00 0.00 0.00 0.00 0.00 0.00
0.00 0.00 0.00 0.00 0.00 0.00 0.00 0.00 0.00 0.00 0.00 0.00 0.00 0.00 0.00 0.00 0.00 0.03 0.04 0.00 0.00 0.00 0.00 0.00 0.00 0.00 0.00 0.00 0.00 0.00 0.00 0.00 0.00 0.00 0.00 0.00 0.00 0.00 0.00 0.00 0.00 0.00 0.00 0.00 0.00 0.00 0.00 0.00 0.00
0.00 0.00 0.00 0.00 0.00 0.00 0.00 0.00 0.00 0.00 0.00 0.00 0.00 0.00 0.00 0.00 0.00 0.00 0.01 0.00 0.00 0.02 0.00 0.00 0.00 0.00 0.00 0.00 0.00 0.00 0.00 0.00 0.00 0.00 0.00 0.00 0.00 0.00 0.00 0.00 0.01 0.02 0.03 0.01 0.00 0.00 0.00 0.00 0.00
0.00 0.00 0.00 0.00 0.00 0.00 0.00 0.00 0.00 0.00 0.00 0.00 0.00 0.00 0.00 0.00 0.00 0.00 0.02 0.01 0.00 0.06 0.03 0.00 0.00 0.01 0.01 0.01 0.00 0.01 0.01 0.00 0.00 0.00 0.00 0.00 0.01 0.02 0.01 0.00 0.06 0.08 0.06 0.06 0.02 0.01 0.00 0.00 0.00
0.00 0.00 0.00 0.00 0.00 0.00 0.00 0.00 0.00 0.00 0.00 0.00 0.00 0.00 0.00 0.00 0.02 0.03 0.05 0.02 0.00 0.00 0.01 0.00 0.00 0.00 0.00 0.00 0.01 0.04 0.03 0.00 0.00 0.00 0.01 0.02 0.06 0.13 0.11 0.07 0.11 0.12 0.08 0.07 0.04 0.01 0.00 0.00 0.00
0.00 0.00 0.00 0.00 0.00 0.00 0.00 0.00 0.00 0.00 0.00 0.00 0.00 0.00 0.00 0.00 0.00 0.01 0.01 0.00 0.00 0.00 0.00 0.00 0.00 0.00 0.00 0.00 0.00 0.00 0.00 0.00 0.00 0.01 0.01 0.04 0.13 0.16 0.18 0.21 0.20 0.18 0.17 0.13 0.12 0.07 0.01 0.05 0.02
0.00 0.00 0.00 0.00 0.00 0.00 0.00 0.00 0.00 0.00 0.00 0.00 0.00 0.00 0.00 0.00 0.00 0.00 0.00 0.00 0.00 0.00 0.00 0.00 0.00 0.00 0.00 0.01 0.01 0.02 0.04 0.03 0.05 0.02 0.01 0.02 0.06 0.12 0.22 0.27 0.24 0.29 0.24 0.15 0.16 0.07 0.02 0.03 0.02
0.00 0.00 0.00 0.00 0.00 0.00 0.00 0.00 0.00 0.00 0.00 0.00 0.00 0.00 0.00 0.00 0.00 0.00 0.00 0.00 0.00 0.00 0.00 0.00 0.00 0.00 0.00 0.00 0.00 0.02 0.03 0.03 0.01 0.01 0.00 0.00 0.00 0.06 0.09 0.04 0.06 0.15 0.23 0.16 0.11 0.07 0.04 0.03 0.00
0.00 0.00 0.00 0.00 0.00 0.00 0.00 0.00 0.00 0.00 0.00 0.00 0.00 0.00 0.00 0.00 0.00 0.00 0.00 0.00 0.00 0.00 0.00 0.00 0.00 0.00 0.00 0.02 0.06 0.02 0.02 0.01 0.01 0.00 0.00 0.00 0.00 0.01 0.01 0.00 0.06 0.06 0.14 0.20 0.16 0.08 0.05 0.03 0.04
0.00 0.00 0.00 0.00 0.00 0.00 0.00 0.00 0.00 0.00 0.00 0.00 0.00 0.00 0.00 0.00 0.00 0.00 0.00 0.00 0.00 0.00 0.00 0.00 0.00 0.00 0.03 0.11 0.09 0.05 0.01 0.00 0.00 0.00 0.00 0.00 0.00 0.00 0.00 0.01 0.05 0.08 0.06 0.08 0.07 0.06 0.03 0.08 0.06
0.00 0.00 0.00 0.00 0.00 0.00 0.00 0.00 0.01 0.01 0.00 0.00 0.00 0.00 0.00 0.00 0.00 0.00 0.00 0.00 0.00 0.00 0.00 0.02 0.02 0.02 0.09 0.08 0.02 0.03 0.00 0.00 0.00 0.02 0.05 0.02 0.05 0.07 0.18 0.23 0.24 0.18 0.16 0.12 0.09 0.06 0.05 0.08 0.03
0.00 0.00 0.00 0.00 0.00 0.00 0.00 0.00 0.01 0.02 0.01 0.00 0.00 0.00 0.00 0.00 0.00 0.00 0.00 0.00 0.00 0.00 0.01 0.02 0.02 0.05 0.06 0.04 0.09 0.04 0.02 0.02 0.02 0.01 0.00 0.01 0.02 0.03 0.04 0.04 0.07 0.06 0.07 0.08 0.06 0.04 0.01 0.00 0.00
0.00 0.00 0.00 0.00 0.00 0.00 0.00 0.00 0.00 0.01 0.00 0.00 0.00 0.00 0.00 0.00 0.00 0.00 0.00 0.00 0.00 0.00 0.00 0.01 0.02 0.02 0.02 0.06 0.05 0.07 0.02 0.00 0.01 0.01 0.01 0.00 0.00 0.00 0.00 0.00 0.00 0.00 0.00 0.01 0.01 0.01 0.01 0.01 0.00
0.00 0.00 0.00 0.00 0.00 0.00 0.00 0.00 0.01 0.01 0.00 0.00 0.00 0.00 0.00 0.00 0.00 0.00 0.00 0.00 0.00 0.00 0.00 0.00 0.01 0.00 0.01 0.01 0.00 0.00 0.00 0.00 0.00 0.00 0.00 0.00 0.00 0.00 0.00 0.00 0.00 0.00 0.00 0.00 0.00 0.00 0.01 0.01 0.00
0.00 0.00 0.00 0.00 0.00 0.00 0.00 0.00 0.00 0.00 0.00 0.00 0.00 0.00 0.00 0.00 0.00 0.00 0.00 0.00 0.00 0.00 0.00 0.00 0.00 0.00 0.00 0.00 0.00 0.00 0.00 0.00 0.00 0.00 0.00 0.00 0.00 0.00 0.00 0.00 0.00 0.00 0.00 0.00 0.00 0.00 0.00 0.00 0.00
0.00 0.00 0.00 0.00 0.00 0.00 0.00 0.01 0.02 0.00 0.00 0.00 0.00 0.00 0.00 0.00 0.00 0.00 0.00 0.00 0.00 0.00 0.00 0.00 0.00 0.00 0.00 0.00 0.00 0.00 0.00 0.00 0.00 0.00 0.00 0.00 0.00 0.00 0.00 0.00 0.00 0.00 0.00 0.00 0.00 0.00 0.00 0.00 0.00
0.00 0.00 0.00 0.00 0.00 0.00 0.00 0.00 0.01 0.01 0.00 0.00 0.01 0.00 0.00 0.00 0.00 0.00 0.00 0.00 0.00 0.00 0.00 0.00 0.00 0.00 0.00 0.00 0.00 0.00 0.00 0.00 0.00 0.00 0.00 0.00 0.00 0.00 0.00 0.00 0.00 0.00 0.00 0.00 0.00 0.00 0.00 0.00 0.00
0.00 0.00 0.00 0.00 0.00 0.00 0.00 0.00 0.00 0.01 0.01 0.01 0.02 0.00 0.00 0.00 0.00 0.00 0.00 0.00 0.00 0.00 0.00 0.00 0.00 0.00 0.00 0.00 0.00 0.00 0.00 0.00 0.00 0.00 0.00 0.00 0.00 0.00 0.00 0.00 0.00 0.00 0.00 0.00 0.00 0.00 0.00 0.00 0.00
0.00 0.00 0.00 0.00 0.00 0.00 0.00 0.00 0.00 0.01 0.08 0.03 0.04 0.00 0.00 0.00 0.00 0.00 0.00 0.00 0.00 0.00 0.00 0.00 0.00 0.00 0.00 0.00 0.00 0.00 0.00 0.00 0.00 0.00 0.00 0.00 0.00 0.00 0.00 0.00 0.00 0.00 0.00 0.00 0.00 0.00 0.00 0.00 0.00
0.00 0.00 0.00 0.00 0.00 0.00 0.00 0.00 0.01 0.03 0.05 0.01 0.00 0.00 0.00 0.00 0.00 0.00 0.00 0.00 0.00 0.00 0.00 0.00 0.00 0.00 0.00 0.00 0.00 0.00 0.00 0.00 0.00 0.00 0.00 0.00 0.00 0.00 0.00 0.00 0.00 0.00 0.00 0.00 0.00 0.00 0.00 0.00 0.00
0.00 0.00 0.00 0.00 0.00 0.00 0.00 0.00 0.00 0.01 0.00 0.00 0.00 0.00 0.00 0.00 0.00 0.00 0.00 0.00 0.00 0.00 0.00 0.00 0.00 0.00 0.00 0.00 0.00 0.00 0.00 0.00 0.00 0.00 0.00 0.00 0.00 0.00 0.00 0.00 0.00 0.00 0.00 0.00 0.00 0.00 0.00 0.00 0.00
0.00 0.00 0.00 0.00 0.00 0.00 0.00 0.00 0.00 0.00 0.00 0.00 0.00 0.00 0.00 0.00 0.00 0.00 0.00 0.00 0.00 0.00 0.00 0.00 0.00 0.00 0.00 0.00 0.00 0.00 0.00 0.00 0.00 0.00 0.00 0.00 0.00 0.00 0.00 0.00 0.00 0.00 0.00 0.00 0.00 0.00 0.00 0.00 0.00
0.00 0.00 0.00 0.00 0.00 0.00 0.00 0.00 0.00 0.00 0.00 0.00 0.00 0.00 0.00 0.00 0.00 0.00 0.00 0.00 0.00 0.00 0.00 0.00 0.00 0.00 0.00 0.00 0.00 0.00 0.00 0.00 0.00 0.00 0.00 0.00 0.00 0.00 0.00 0.00 0.00 0.00 0.00 0.00 0.00 0.00 0.00 0.00 0.00
0.00 0.00 0.00 0.00 0.00 0.00 0.00 0.00 0.00 0.00 0.00 0.00 0.00 0.00 0.00 0.00 0.00 0.00 0.00 0.00 0.00 0.00 0.00 0.00 0.00 0.00 0.00 0.00 0.00 0.00 0.00 0.00 0.00 0.00 0.00 0.00 0.00 0.00 0.00 0.00 0.00 0.00 0.00 0.00 0.00 0.00 0.00 0.00 0.00
MSLP
1011.25 1011.45 1012.02 1012.18 1012.95 1012.74 1012.34 1011.21 1010.24 1008.97 1008.91 1008.72 1008.95 1008.70 1011.11 1012.36 1014.33 1014.06 1013.43 1012.40 1012.11 1013.50 1013.45 1013.23 1013.14 1013.13 1013.08 1013.24 1013.47 1013.51 1013.50 1013.57 1013.64 1013.54 1013.47 1013.51 1013.53 1013.49 1013.51 1013.68 1013.82 1013.96 1014.08 1014.14 1014.21 1014.18 1014.08 1013.96 1013.90
1011.15 1011.52 1012.07 1011.96 1012.68 1012.88 1011.53 1009.97 1009.49 1008.42 1008.45 1009.34 1009.48 1011.55 1010.47 1013.69 1014.68 1014.58 1013.97 1014.15 1013.66 1013.47 1013.26 1013.30 1013.47 1013.46 1013.69 1013.79 1013.92 1013.75 1013.65 1013.77 1013.87 1013.98 1014.01 1014.00 1014.02 1014.00 1013.98 1014.02 1014.13 1014.18 1014.21 1014.42 1014.60 1014.54 1014.34 1014.25 1014.17
1010.73 1010.91 1012.02 1012.19 1012.69 1012.31 1010.84 1008.92 1007.83 1008.47 1008.99 1008.86 1010.78 1012.04 1013.77 1014.65 1015.12 1016.50 1015.37 1014.56 1014.64 1014.99 1014.00 1013.53 1013.65 1013.80 1013.99 1014.16 1014.26 1014.10 1014.00 1014.02 1014.14 1014.29 1014.48 1014.50 1014.41 1014.42 1014.42 1014.48 1014.48 1014.46 1014.49 1014.51 1014.58 1014.66 1014.68 1014.50 1014.40
1010.24 1011.15 1011.93 1012.19 1012.00 1010.46 1009.57 1007.38 1007.25 1008.70 1008.63 1009.25 1010.61 1013.51 1016.26 1015.23 1013.76 1016.41 1016.40 1015.06 1015.15 1015.01 1014.56 1014.28 1014.20 1014.09 1014.24 1014.28 1014.32 1014.44 1014.48 1014.37 1014.37 1014.47 1014.54 1014.56 1014.60 1014.60 1014.69 1014.73 1014.68 1014.65 1014.55 1014.48 1014.55 1014.61 1014.59 1014.64 1014.59
1010.27 1011.49 1012.28 1012.46 1011.07 1009.85 1008.23 1007.18 1007.40 1008.59 1009.48 1010.40 1011.19 1014.19 1015.67 1015.14 1014.79 1014.69 1015.32 1015.46 1014.35 1014.62 1014.56 1014.56 1014.36 1014.28 1014.45 1014.63 1014.73 1014.85 1014.92 1014.72 1014.53 1014.59 1014.60 1014.59 1014.66 1014.88 1014.94 1014.90 1014.87 1014.76 1014.71 1014.59 1014.42 1014.35 1014.38 1014.37 1014.40
1010.98 1011.97 1012.83 1012.54 1011.18 1009.43 1008.14 1008.10 1007.69 1008.75 1010.16 1010.60 1011.68 1013.64 1015.05 1015.09 1014.36 1012.38 1012.86 1014.59 1014.61 1014.85 1014.84 1014.45 1014.25 1014.27 1014.53 1014.87 1015.14 1015.05 1015.10 1015.10 1015.12 1015.12 1015.13 1015.05 1015.07 1015.10 1015.10 1014.97 1014.89 1014.92 1014.84 1014.71 1014.46 1014.32 1014.23 1014.18 1014.18
1011.44 1012.60 1012.88 1011.99 1011.10 1009.84 1008.42 1008.72 1008.88 1009.97 1010.66 1011.19 1011.68 1013.61 1015.64 1015.57 1015.12 1014.79 1014.80 1015.05 1014.98 1015.26 1015.33 1015.50 1015.41 1014.97 1014.91 1014.93 1014.96 1015.04 1015.28 1015.37 1015.43 1015.40 1015.45 1015.46 1015.37 1015.44 1015.52 1015.35 1015.04 1014.82 1014.71 1014.63 1014.58 1014.38 1014.20 1014.01 1014.02
1011.25 1012.38 1012.57 1011.80 1011.01 1009.85 1008.90 1008.36 1009.12 1009.56 1011.11 1011.75 1012.41 1013.88 1015.65 1015.53 1015.40 1015.37 1014.91 1015.17 1014.78 1014.50 1014.47 1014.88 1015.02 1015.03 1015.09 1015.29 1015.60 1015.49 1015.38 1015.41 1015.46 1015.34 1015.41 1015.53 1015.60 1015.66 1015.75 1015.48 1015.22 1015.09 1015.07 1014.87 1014.60 1014.51 1014.30 1014.21 1013.72
1010.94 1012.13 1012.08 1011.59 1010.53 1009.10 1008.75 1009.05 1010.06 1010.38 1011.11 1012.45 1013.04 1013.65 1014.61 1015.06 1015.10 1015.00 1014.61 1014.62 1014.19 1013.57 1013.42 1013.53 1014.50 1014.56 1014.51 1014.84 1014.96 1015.34 1015.94 1015.78 1015.72 1015.69 1015.75 1015.97 1016.03 1015.87 1015.71 1015.57 1015.45 1015.22 1014.80 1014.77 1014.58 1014.32 1014.36 1014.07 1013.79
1010.98 1011.96 1010.97 1010.31 1009.39 1008.99 1008.40 1008.79 1009.64 1011.12 1011.71 1013.56 1013.86 1014.50 1014.87 1014.52 1014.58 1014.64 1014.52 1014.30 1013.62 1014.55 1014.38 1012.91 1013.17 1013.42 1014.21 1014.54 1015.10 1015.72 1015.00 1015.72 1015.94 1015.74 1016.05 1016.10 1016.19 1016.32 1016.09 1015.78 1015.37 1015.15 1014.77 1014.46 1014.31 1014.19 1013.95 1014.08 1013.96
1010.70 1010.73 1009.57 1008.99 1008.47 1008.74 1008.49 1008.56 1009.46 1011.09 1012.12 1012.63 1013.39 1013.98 1014.76 1015.28 1015.22 1015.38 1015.05 1015.05 1015.70 1015.42 1015.02 1014.89 1015.26 1014.04 1014.48 1015.25 1015.76 1015.92 1016.25 1015.99 1015.62 1015.58 1015.61 1015.60 1015.78 1016.35 1016.62 1016.63 1015.58 1014.87 1014.56 1014.15 1013.90 1013.96 1013.87 1014.09 1014.01
1010.39 1009.22 1009.07 1008.36 1007.88 1008.19 1008.13 1009.14 1010.20 1010.84 1011.93 1012.88 1014.12 1014.86 1015.55 1015.96 1016.13 1016.28 1016.39 1015.90 1016.50 1016.09 1015.74 1015.94 1015.84 1015.19 1015.35 1015.95 1015.76 1016.12 1016.11 1015.66 1015.84 1015.31 1014.95 1014.80 1015.23 1014.77 1015.34 1016.39 1016.61 1015.81 1014.43 1014.30 1013.87 1014.07 1013.82 1013.79 1014.17
1009.53 1008.54 1007.92 1007.45 1008.03 1008.35 1008.64 1009.97 1011.12 1012.70 1013.42 1014.02 1014.73 1015.49 1016.31 1016.86 1017.18 1017.61 1017.46 1017.42 1017.48 1016.78 1016.26 1016.70 1016.67 1016.30 1015.80 1015.97 1016.36 1016.46 1015.98 1016.12 1016.33 1016.41 1015.68 1015.21 1015.16 1015.42 1014.50 1016.47 1016.73 1015.61 1014.69 1014.14 1013.93 1014.15 1013.51 1013.66 1013.81
1008.35 1007.92 1007.52 1007.04 1007.40 1007.93 1009.68 1011.91 1011.59 1014.49 1014.50 1015.28 1016.07 1017.01 1017.67 1017.78 1018.04 1017.90 1017.77 1017.96 1017.69 1017.44 1017.44 1017.28 1016.52 1016.13 1016.32 1016.63 1017.03 1016.85 1016.71 1016.52 1016.95 1016.62 1015.98 1015.78 1015.55 1015.25 1015.27 1015.57 1016.07 1015.45 1014.76 1014.31 1013.52 1013.86 1013.81 1013.59 1013.58
1007.89 1007.75 1007.33 1007.12 1007.30 1009.52 1010.13 1013.48 1014.27 1014.90 1015.65 1016.27 1017.16 1017.88 1018.26 1018.54 1018.32 1018.62 1018.75 1018.62 1018.38 1017.97 1018.03 1017.71 1017.02 1016.78 1016.77 1017.37 1017.33 1017.33 1017.12 1017.25 1017.49 1016.92 1016.36 1016.24 1015.84 1015.78 1014.67 1015.20 1015.46 1015.24 1014.61 1013.60 1014.23 1013.76 1013.46 1013.82 1013.89
1008.25 1008.06 1008.07 1007.31 1007.57 1008.00 1009.10 1014.98 1015.78 1015.92 1015.72 1017.07 1017.60 1018.27 1018.67 1019.03 1019.15 1019.38 1019.52 1019.54 1019.22 1018.70 1018.38 1018.21 1017.84 1017.64 1017.92 1017.98 1017.82 1017.72 1017.71 1017.84 1018.14 1017.93 1017.14 1016.81 1016.27 1016.17 1015.59 1015.09 1014.66 1014.19 1013.75 1013.97 1013.94 1013.13 1013.22 1013.58 1013.51
1009.26 1009.07 1008.70 1008.16 1007.64 1008.65 1010.33 1015.17 1016.29 1016.72 1016.76 1017.46 1018.07 1018.65 1018.89 1019.18 1019.23 1019.21 1019.29 1019.58 1019.65 1019.65 1019.54 1019.40 1019.22 1019.04 1018.64 1018.19 1017.98 1017.96 1018.18 1018.11 1017.99 1018.17 1017.71 1017.01 1016.41 1016.10 1015.56 1015.24 1015.12 1014.74 1014.48 1014.58 1014.46 1013.79 1013.47 1013.24 1013.67
1009.76 1009.35 1008.71 1008.21 1008.25 1009.46 1011.82 1014.39 1016.18 1017.14 1017.45 1017.82 1018.61 1019.27 1019.53 1019.92 1020.46 1020.47 1020.33 1020.36 1020.47 1020.53 1020.44 1020.08 1020.02 1019.80 1019.21 1018.90 1018.83 1018.36 1018.65 1018.93 1018.91 1018.84 1018.40 1017.96 1017.59 1016.85 1016.59 1016.39 1015.90 1015.38 1014.97 1014.86 1014.91 1014.50 1013.84 1013.49 1013.75
1009.26 1008.88 1008.50 1007.98 1008.73 1010.19 1012.63 1014.72 1016.47 1017.53 1017.90 1017.97 1018.83 1019.45 1020.13 1020.38 1020.67 1020.84 1020.91 1020.90 1021.12 1021.13 1021.01 1021.15 1020.96 1020.85 1020.23 1019.89 1019.42 1019.57 1019.80 1019.83 1019.94 1019.35 1019.16 1018.86 1018.31 1017.75 1017.81 1017.20 1016.79 1016.27 1016.09 1015.93 1015.62 1015.05 1014.47 1014.09 1014.11
1008.19 1008.42 1008.55 1008.67 1009.43 1010.79 1014.00 1016.11 1017.37 1018.13 1018.25 1018.33 1018.96 1019.66 1020.25 1020.63 1021.00 1021.27 1021.51 1021.53 1021.68 1021.91 1021.90 1021.69 1021.68 1021.50 1021.28 1021.15 1020.99 1020.80 1020.44 1020.49 1020.47 1020.03 1019.88 1019.49 1019.22 1019.34 1018.80 1018.33 1017.99 1017.59 1017.07 1016.81 1016.25 1015.84 1015.35 1014.81 1014.33
1008.05 1008.32 1008.63 1009.32 1010.57 1012.28 1013.55 1016.92 1017.99 1018.58 1018.94 1019.19 1019.69 1019.99 1020.34 1020.36 1020.84 1021.31 1021.73 1021.91 1021.93 1022.19 1022.26 1022.18 1022.21 1022.13 1022.14 1021.89 1021.57 1021.23 1021.11 1021.10 1021.13 1021.02 1020.93 1020.44 1020.03 1019.50 1019.22 1018.69 1018.27 1018.06 1017.75 1017.42 1017.05 1016.66 1016.26 1015.51 1014.92
1008.20 1008.49 1008.72 1009.78 1011.02 1012.98 1013.29 1017.09 1018.55 1018.81 1019.14 1019.66 1019.94 1020.12 1020.48 1020.77 1020.93 1021.34 1022.06 1022.44 1022.64 1022.81 1022.66 1022.64 1022.79 1022.71 1022.75 1022.53 1022.45 1022.51 1022.61 1022.45 1022.28 1021.90 1021.56 1021.04 1020.44 1020.01 1019.58 1019.21 1018.80 1018.49 1018.08 1017.68 1017.35 1016.84 1016.65 1016.04 1015.38
1008.44 1008.43 1009.23 1010.07 1011.55 1012.81 1014.08 1015.75 1017.68 1019.06 1019.72 1020.01 1020.36 1020.57 1020.75 1020.53 1020.95 1021.74 1022.24 1022.72 1023.15 1023.20 1023.09 1023.15 1023.26 1023.33 1023.37 1023.26 1023.14 1023.12 1023.14 1022.91 1022.56 1022.24 1021.85 1021.37 1020.80 1020.26 1019.78 1019.40 1019.17 1018.81 1018.35 1017.86 1017.32 1016.78 1016.48 1016.21 1015.77
1008.59 1009.37 1010.46 1011.48 1012.62 1013.79 1013.89 1015.40 1017.93 1018.37 1018.75 1019.49 1019.93 1020.34 1020.58 1020.90 1021.16 1021.79 1022.40 1022.83 1023.43 1023.60 1023.42 1023.66 1023.88 1024.09 1023.88 1023.62 1023.47 1023.42 1023.45 1023.31 1023.15 1022.75 1022.39 1021.81 1021.17 1020.55 1019.90 1019.45 1019.12 1018.73 1018.38 1017.98 1017.40 1016.96 1016.67 1016.26 1015.75
1009.44 1011.04 1012.66 1014.06 1014.86 1015.28 1014.75 1015.97 1018.12 1018.00 1018.53 1019.05 1019.64 1020.29 1020.65 1020.78 1021.36 1022.03 1022.59 1023.31 1023.80 1023.88 1023.93 1024.01 1024.17 1024.29 1024.05 1023.80 1023.60 1023.44 1023.35 1023.20 1023.04 1022.72 1022.30 1021.80 1021.23 1020.58 1020.04 1019.58 1019.13 1018.67 1018.08 1017.63 1017.15 1016.83 1016.39 1016.06 1015.63
1010.47 1011.88 1013.72 1014.92 1016.06 1015.93 1015.76 1017.35 1018.22 1018.26 1018.21 1018.95 1019.60 1020.16 1020.66 1021.17 1021.56 1022.21 1023.09 1023.85 1024.15 1024.21 1024.28 1024.37 1024.48 1024.45 1024.10 1023.78 1023.54 1023.32 1023.15 1023.03 1022.73 1022.40 1022.00 1021.56 1021.10 1020.61 1019.89 1019.43 1018.96 1018.52 1018.09 1017.68 1017.26 1016.85 1016.24 1015.66 1015.32
1010.65 1012.00 1013.15 1014.75 1016.01 1016.79 1017.42 1018.40 1018.77 1019.02 1019.50 1019.77 1020.05 1020.31 1020.92 1021.46 1022.05 1022.90 1023.72 1024.22 1024.49 1024.51 1024.58 1024.60 1024.60 1024.53 1024.21 1024.03 1023.78 1023.44 1023.11 1022.78 1022.55 1022.14 1021.74 1021.30 1020.77 1020.27 1019.61 1019.36 1019.13 1018.68 1017.96 1017.55 1017.15 1016.55 1015.89 1015.33 1014.88
1010.62 1011.84 1013.60 1015.50 1017.00 1017.71 1017.70 1018.09 1018.35 1019.16 1019.62 1020.03 1020.36 1020.63 1021.02 1021.60 1022.54 1023.53 1024.37 1024.81 1024.96 1024.97 1024.91 1024.71 1024.55 1024.61 1024.40 1024.28 1024.08 1023.80 1023.39 1022.94 1022.48 1022.02 1021.51 1021.07 1020.61 1020.14 1019.77 1019.39 1018.95 1018.45 1017.85 1017.36 1016.91 1016.48 1016.05 1015.73 1015.55
1011.31 1012.41 1014.14 1015.83 1017.26 1018.03 1018.08 1017.73 1016.73 1017.54 1018.60 1019.34 1019.87 1020.44 1020.97 1021.78 1023.05 1023.95 1024.76 1025.30 1025.34 1025.25 1025.15 1024.97 1024.78 1024.77 1024.70 1024.51 1024.20 1023.91 1023.52 1023.11 1022.62 1022.14 1021.65 1021.19 1020.75 1020.35 1019.91 1019.53 1019.05 1018.57 1018.09 1017.66 1017.28 1016.97 1016.70 1016.48 1016.34
1011.40 1012.46 1014.08 1016.36 1017.58 1017.99 1018.07 1017.15 1016.46 1017.01 1017.79 1018.69 1019.57 1020.32 1021.16 1022.24 1023.42 1024.39 1025.19 1025.61 1025.62 1025.56 1025.34 1025.21 1025.13 1025.15 1024.97 1024.80 1024.51 1024.19 1023.78 1023.45 1023.06 1022.58 1022.03 1021.42 1021.11 1020.56 1019.95 1019.62 1019.29 1018.99 1018.65 1018.25 1017.91 1017.60 1017.33 1017.16 1016.96
Thickness
5825 5824 5819 5809 5777 5771 5763 5775 5800 5806 5805 5820 5817 5816 5790 5786 5758 5752 5789 5804 5808 5794 5791 5793 5796 5797 5800 5800 5799 5800 5801 5801 5800 5801 5802 5801 5801 5802 5801 5798 5796 5793 5791 5789 5788 5787 5787 5787 5787
5825 5823 5814 5798 5762 5745 5759 5793 5791 5810 5819 5811 5811 5788 5797 5764 5770 5773 5777 5782 5789 5793 5795 5794 5792 5792 5791 5793 5793 5796 5798 5797 5796 5795 5795 5794 5794 5794 5794 5793 5791 5789 5788 5785 5781 5781 5782 5781 5781
5828 5827 5798 5778 5751 5744 5759 5800 5812 5813 5816 5818 5796 5773 5774 5770 5771 5754 5766 5776 5778 5775 5786 5792 5791 5789 5788 5787 5787 5790 5793 5793 5791 5790 5788 5787 5787 5787 5786 5785 5784 5784 5782 5781 5780 5777 5774 5775 5775
5824 5811 5798 5768 5761 5780 5790 5820 5823 5809 5814 5815 5797 5755 5751 5773 5783 5756 5754 5764 5771 5775 5780 5783 5784 5786 5785 5785 5786 5786 5785 5786 5786 5785 5785 5784 5783 5783 5781 5780 5780 5779 5780 5780 5777 5775 5773 5770 5768
5817 5796 5766 5760 5771 5792 5811 5826 5821 5807 5804 5799 5797 5755 5749 5769 5773 5767 5761 5762 5776 5777 5779 5779 5782 5783 5782 5781 5781 5780 5779 5781 5782 5781 5781 5781 5780 5776 5775 5775 5774 5774 5774 5774 5774 5773 5771 5770 5768
5788 5782 5749 5745 5769 5794 5809 5813 5818 5805 5794 5795 5788 5771 5760 5772 5780 5797 5792 5773 5777 5777 5777 5779 5781 5781 5780 5776 5773 5774 5773 5773 5772 5772 5772 5772 5771 5770 5769 5770 5769 5768 5767 5767 5769 5769 5768 5768 5768
5779 5758 5749 5764 5768 5777 5803 5810 5802 5792 5790 5786 5791 5764 5760 5765 5775 5776 5772 5774 5773 5773 5774 5772 5772 5776 5775 5775 5774 5772 5769 5767 5765 5764 5763 5763 5763 5761 5758 5760 5763 5764 5763 5762 5760 5762 5765 5767 5766
5782 5766 5760 5767 5760 5764 5800 5808 5798 5795 5780 5789 5786 5758 5749 5762 5768 5766 5770 5769 5774 5777 5777 5774 5772 5772 5772 5769 5764 5764 5763 5761 5760 5761 5758 5756 5756 5755 5752 5754 5755 5754 5753 5754 5755 5755 5757 5756 5761
5795 5752 5744 5758 5770 5782 5803 5793 5794 5796 5782 5774 5775 5774 5770 5769 5772 5772 5775 5772 5776 5781 5782 5778 5770 5768 5767 5765 5764 5761 5754 5755 5753 5751 5749 5745 5743 5744 5745 5745 5743 5743 5746 5745 5748 5751 5748 5749 5751
5772 5743 5762 5781 5790 5785 5797 5796 5788 5772 5770 5757 5762 5768 5769 5773 5771 5770 5772 5770 5774 5764 5769 5781 5779 5778 5769 5765 5759 5749 5756 5750 5748 5748 5743 5740 5736 5733 5732 5731 5730 5731 5733 5737 5740 5741 5742 5741 5741
5777 5760 5786 5792 5797 5797 5798 5794 5797 5768 5754 5762 5758 5761 5762 5758 5759 5759 5761 5761 5754 5757 5758 5762 5756 5766 5763 5753 5745 5746 5742 5740 5743 5742 5741 5735 5731 5725 5720 5715 5719 5720 5721 5727 5731 5732 5734 5730 5731
5771 5788 5790 5797 5804 5801 5797 5792 5780 5779 5769 5769 5760 5755 5753 5748 5747 5748 5747 5751 5744 5746 5747 5742 5742 5747 5744 5737 5739 5736 5735 5736 5730 5733 5733 5735 5727 5727 5720 5704 5695 5697 5705 5709 5719 5719 5721 5721 5717
5775 5788 5797 5804 5800 5796 5794 5777 5769 5756 5761 5762 5758 5751 5742 5738 5736 5731 5735 5735 5731 5735 5739 5734 5728 5731 5733 5731 5729 5727 5728 5724 5718 5715 5720 5723 5721 5716 5721 5694 5696 5686 5702 5703 5706 5705 5711 5710 5709
5789 5791 5796 5806 5801 5801 5772 5758 5767 5747 5756 5745 5740 5732 5729 5729 5728 5730 5731 5726 5727 5730 5727 5726 5730 5730 5726 5720 5715 5717 5716 5713 5706 5706 5711 5710 5711 5713 5705 5699 5692 5693 5697 5697 5701 5697 5696 5696 5699
5791 5786 5790 5797 5802 5774 5771 5733 5731 5742 5742 5734 5728 5723 5721 5720 5724 5721 5720 5720 5721 5722 5718 5719 5723 5720 5719 5708 5708 5705 5703 5699 5693 5694 5699 5698 5701 5703 5707 5699 5696 5690 5690 5699 5692 5689 5689 5687 5686
5772 5772 5754 5782 5791 5797 5775 5706 5725 5733 5733 5722 5721 5718 5717 5716 5715 5712 5708 5705 5706 5709 5710 5712 5713 5710 5703 5697 5697 5695 5692 5685 5677 5677 5683 5683 5686 5689 5694 5694 5695 5697 5697 5692 5691 5695 5691 5685 5684
5745 5734 5745 5757 5785 5781 5759 5710 5723 5727 5726 5720 5718 5715 5716 5712 5711 5710 5708 5702 5699 5697 5695 5694 5696 5694 5692 5692 5688 5686 5679 5674 5670 5667 5668 5673 5677 5679 5685 5686 5679 5678 5682 5678 5679 5682 5683 5686 5680
5729 5732 5748 5745 5767 5760 5737 5720 5718 5717 5716 5716 5712 5708 5706 5700 5693 5692 5692 5691 5687 5684 5682 5682 5679 5679 5682 5681 5675 5674 5669 5665 5660 5657 5657 5658 5661 5668 5669 5668 5669 5670 5672 5673 5672 5671 5675 5677 5671
5748 5748 5745 5760 5769 5752 5730 5716 5710 5708 5709 5711 5707 5701 5696 5691 5687 5684 5682 5678 5674 5671 5669 5664 5662 5660 5664 5665 5665 5658 5653 5650 5647 5648 5644 5644 5650 5653 5651 5654 5653 5654 5657 5657 5656 5657 5661 5661 5658
5759 5750 5747 5759 5763 5747 5717 5699 5699 5698 5701 5705 5700 5694 5689 5683 5678 5675 5671 5668 5664 5658 5654 5652 5649 5647 5647 5645 5643 5641 5641 5638 5634 5634 5633 5633 5632 5631 5635 5635 5635 5636 5637 5636 5639 5640 5643 5645 5645
5750 5745 5744 5746 5743 5733 5720 5687 5685 5692 5694 5694 5690 5688 5684 5682 5674 5668 5662 5657 5654 5647 5644 5641 5638 5635 5632 5631 5630 5629 5626 5624 5620 5618 5616 5616 5616 5617 5618 5624 5627 5625 5623 5622 5620 5620 5620 5624 5624
5725 5752 5751 5741 5727 5691 5729 5658 5671 5680 5682 5681 5680 5677 5675 5671 5669 5663 5653 5646 5641 5636 5635 5632 5627 5624 5620 5616 5613 5610 5606 5604 5602 5602 5601 5601 5602 5603 5603 5603 5604 5604 5605 5607 5607 5607 5603 5606 5609
5738 5757 5749 5746 5720 5714 5711 5678 5672 5671 5665 5667 5666 5667 5664 5666 5662 5653 5646 5639 5630 5625 5623 5620 5616 5611 5607 5604 5601 5597 5595 5594 5594 5593 5592 5592 5593 5592 5591 5590 5589 5589 5589 5590 5589 5590 5588 5586 5588
5753 5739 5723 5714 5703 5678 5712 5693 5661 5666 5668 5665 5668 5665 5662 5657 5654 5647 5641 5632 5621 5613 5610 5605 5601 5596 5595 5594 5591 5588 5584 5582 5580 5580 5580 5580 5580 5581 5581 5580 5578 5577 5575 5575 5575 5575 5573 5573 5573
5726 5697 5663 5667 5660 5661 5698 5678 5655 5671 5671 5669 5663 5658 5653 5652 5645 5640 5632 5620 5611 5604 5598 5594 5589 5586 5585 5583 5582 5580 5577 5574 5572 5571 5570 5570 5570 5571 5571 5570 5570 5570 5569 5569 5568 5567 5566 5564 5563
5713 5695 5655 5657 5648 5664 5682 5651 5652 5668 5672 5665 5660 5652 5648 5641 5637 5631 5620 5610 5603 5595 5588 5582 5579 5576 5575 5574 5573 5571 5569 5566 5564 5563 5563 5563 5562 5562 5564 5563 5563 5562 5561 5560 5560 5559 5560 5559 5556
5712 5689 5696 5668 5666 5655 5650 5651 5657 5655 5651 5651 5646 5645 5639 5632 5625 5618 5608 5600 5592 5586 5580 5576 5571 5567 5565 5563 5561 5561 5560 5559 5557 5557 5556 5556 5557 5558 5559 5558 5556 5555 5557 5556 5556 5557 5558 5558 5557
5714 5711 5670 5648 5644 5649 5647 5642 5638 5643 5642 5641 5638 5636 5632 5626 5616 5605 5594 5586 5579 5575 5570 5567 5563 5559 5556 5553 5550 5549 5548 5548 5548 5549 5550 5552 5553 5554 5555 5554 5554 5554 5554 5554 5553 5552 5550 5547 5542
5688 5680 5670 5658 5642 5628 5625 5634 5662 5657 5646 5639 5636 5633 5629 5620 5607 5593 5579 5570 5565 5560 5556 5553 5550 5547 5543 5540 5539 5538 5538 5539 5541 5543 5545 5545 5547 5548 5548 5547 5547 5547 5546 5545 5543 5539 5536 5531 5526
5700 5689 5663 5627 5643 5635 5623 5623 5662 5654 5649 5642 5635 5631 5622 5611 5595 5579 5566 5557 5552 5547 5544 5542 5538 5533 5531 5530 5529 5530 5532 5531 5531 5533 5536 5538 5539 5541 5542 5540 5539 5538 5536 5533 5530 5526 5522 5516 5511